Location: Sobotiste
(48.7170°N, 17.4000°E)
Time: 09:24:43
(UTC+02:00)

YUBILEINY - Pass Details

Date: 15 March 2026
Orbit: 1477 x 1509 km, 82.5° (Epoch: 17 April)

Event Time Altitude Azimuth Distance (km) Brightness Sun altitude
Rises 01:57:46 0° 351° (N) 4,625 ? -37.0°
Reaches altitude 10° 02:00:57 10° 359° (N) 3,638 ? -36.7°
Maximum altitude 02:09:04 41° 67° (ENE) 2,041 ? -35.8°
Drops below altitude 10° 02:17:07 10° 136° (SE) 3,609 ? -34.9°
Sets 02:20:14 0° 143° (SE) 4,585 ? -34.6°
